Location: Ostrava
(49.8330°N, 18.2830°E)
Time: 11:23:47
(UTC+01:00)

Explorer 7 - Visible Passes

Search period start: 26 January 2015 00:00
Search period end: 05 February 2015 00:00
Orbit: 490 x 699 km, 50.3° (Epoch: 25 January)

Date Brightness Start Highest point End Pass type
(mag) Time Alt. Az. Time Alt. Az. Time Alt. Az.
26 Jan 7.3 17:23:44 10° WSW 17:28:21 74° SSE 17:32:41 13° ENE visible
26 Jan 7.1 19:04:30 10° W 19:09:15 84° NNW 19:09:15 84° NNW visible
26 Jan 10.2 20:45:23 10° WNW 20:45:49 13° WNW 20:45:49 13° WNW visible
27 Jan 7.2 17:32:32 10° WSW 17:37:11 87° SSE 17:41:14 15° E visible
27 Jan 7.3 19:13:23 10° W 19:17:48 76° W 19:17:48 76° W visible
27 Jan 10.4 20:54:17 10° W 20:54:23 11° W 20:54:23 11° W visible
28 Jan 7.2 17:41:23 10° W 17:46:03 85° N 17:49:48 17° E visible
28 Jan 7.5 19:22:14 10° W 19:26:22 65° W 19:26:22 65° W visible
29 Jan 7.2 17:50:14 10° W 17:54:56 84° N 17:58:24 19° E visible
29 Jan 7.8 19:31:05 10° WNW 19:34:58 54° WSW 19:34:58 54° WSW visible
30 Jan 7.2 17:59:05 10° W 18:03:47 88° N 18:07:02 21° E visible
30 Jan 8.2 19:39:56 10° WNW 19:43:36 43° WSW 19:43:36 43° WSW visible
31 Jan 7.2 18:07:55 10° W 18:12:37 83° SSW 18:15:42 23° ESE visible
31 Jan 8.7 19:48:50 10° W 19:52:18 33° WSW 19:52:18 33° WSW visible
01 Feb 7.4 18:16:43 10° WNW 18:21:24 69° SSW 18:24:29 22° ESE visible
01 Feb 9.1 19:57:53 10° W 20:01:04 24° SW 20:01:04 24° SW visible
02 Feb 7.8 18:25:33 10° WNW 18:30:08 53° SSW 18:33:22 20° SE visible
02 Feb 9.6 20:07:12 10° W 20:09:58 17° SW 20:09:58 17° SW visible
03 Feb 8.4 18:34:24 10° W 18:38:48 39° SSW 18:42:23 15° SSE visible
03 Feb 10.0 20:17:35 10° WSW 20:18:52 11° SW 20:19:00 11° SW visible
04 Feb 9.0 18:43:23 10° W 18:47:24 27° SW 18:51:31 10° SSE visible
